星链-30404 (STARLINK-30404 )

导读 | 星芒AI

STARLINK-30404 是 SpaceX Starlink 卫星互联网项目中的一颗低轨卫星,属于第三代星链卫星(v1.5 或 v2 架构)。该卫星于 2023 年发射,旨在为全球提供高速、低延迟的宽带互联网服务。它运行在约 550 公里的轨道高度,配备先进通信设备,支持 Ku 和 Ka 频段,提升网络容量和覆盖范围。作为 Starlink 卫星群的一部分,STARLINK-30404 有助于改善偏远地区的网络连接,支持民用、商用及应急通信需求。

基本信息
目录编号:
57853
目录名称:
STARLINK-30404
国际标识:
2023-141P
轨道中心:
EARTH
卫星名称:
星链-30404
卫星全名:
星链-30404 (STARLINK-30404 )
卫星状态:
在轨 (已飞行779 天)
发射日期:
2023-09-12 UTC
国别 :
美国 (US)
星等 :
--
轨道信息
数据来源 国际轨道数据
星历时间: 2025-10-30T06:21:41+0800
1天前
查看轨道信息
半长轴: 6853.505km
偏心率: 0.0001127
轨道倾角: 53.158°
近地点辐角 91.838°
升交点赤经 171.109°
平近点角 268.275°
近地点: 474.597km
远地点: 476.143km
周期: 94.108分钟
每日圈数: 15.301488
详细信息
固有亮度:
5
最大亮度:
0.3
卫星平台:
Starlink v2.0 mini
覆盖范围:
全球
运营商:
太空探索技术公司
运营商所在国:
美国
制造商(研发单位):
太空探索技术公司
制造商所在国:
美国
使用方式:
暂无
卫星简介
星链(Starlink)计划是由太空探索技术公司(SpaceX)提出的一个巨型低轨卫星互联网星座项目,计划在2019年至2024年间在太空搭建由约1.2万颗卫星组成的“星链”网络,其中1584颗将部署在地球上空550千米处的近地轨道,并从2020年开始工作。该卫星仍在工作。
2D轨道图
3D轨道图
轨道高度分析图
轨道倾角分析图
轨道综合分析图
查看轨道综合分析图